User: anonymous   Login
Location: Caltech
(34.1382°N, 118.1253°W)
Time: 04:49:12
(UTC-07:00)
Language:

BREEZE M DEB (TANK) - Orbit

View from above orbital plane
View from above orbital plane
View from above satellite
View from above satellite

Ground track
Ground track

The orbit data is extracted from the following two-line orbital elements,

1 33437U 08057B   15211.65771443  .00001325  00000-0  24098-3 0  9994
2 33437 049.5500 113.5486 5018344 296.4752 024.0676 05.58019270135385
Epoch (UTC): 30 July 2015 15:47:06
Eccentricity: 0.5018344
inclination: 49.5500°
perigee height: 310 km
apogee height: 13786 km
right ascension of ascending node: 113.5486°
argument of perigee: 296.4752°
revolutions per day: 5.58019270
mean anomaly at epoch: 24.0676°
orbit number at epoch: 13538

The dashed part of the orbit path shows where the satellite is in the earth's shadow,  

DLR